User: anonymous   Login
Location: Unspecified
(0.0000°N, 0.0000°E)
Time: 05:30:33
(UTC+00:00)
Language:

Optus B1 - Orbit

View from above orbital plane
View from above orbital plane
View from above satellite
View from above satellite

Ground track
Ground track

The orbit data is extracted from the following two-line orbital elements,

1 22087U 92054A   17233.37363951 -.00000316  00000-0  00000+0 0  9992
2 22087   8.7796  45.3985 0007076  66.5836 122.0705  0.99206664102738
Epoch (UTC): 21 August 2017 08:58:02
Eccentricity: 0.0007076
inclination: 8.7796°
perigee height: 36057 km
apogee height: 36117 km
right ascension of ascending node: 45.3985°
argument of perigee: 66.5836°
revolutions per day: 0.99206664
mean anomaly at epoch: 122.0705°
orbit number at epoch: 10273

The dashed part of the orbit path shows where the satellite is in the earth's shadow,  

DLR